| time (UTC) | temp F | wind direction | speed MPH | gust MPH | rain 1hr in | rain 24hr in | rain mn in | humidity % | barometer mb |
| 20260904145521 | 66 | 82 | 1.0 | 4.0 | 0.00 | 0.00 | 0.00 | 81 | 1014.1 |
| 20260904145020 | 65 | 0 | 0.0 | 4.0 | 0.00 | 0.00 | 0.00 | 82 | 1014.1 |
| 20260904144541 | 65 | 0 | 1.0 | 4.0 | 0.00 | 0.00 | 0.00 | 83 | 1014.2 |
| 20260904144020 | 64 | 136 | 1.0 | 3.0 | 0.00 | 0.00 | 0.00 | 84 | 1014.1 |
| 20260904143520 | 64 | 0 | 0.0 | 2.0 | 0.00 | 0.00 | 0.00 | 85 | 1014.1 |
| 20260904143040 | 63 | 0 | 0.0 | 0.0 | 0.00 | 0.00 | 0.00 | 86 | 1014.1 |
| 20260904142524 | 63 | 0 | 0.0 | 2.0 | 0.00 | 0.00 | 0.00 | 85 | 1014.0 |
| 20260904142019 | 63 | 0 | 0.0 | 2.0 | 0.00 | 0.00 | 0.00 | 85 | 1014.0 |
| 20260904141603 | 63 | 0 | 0.0 | 2.0 | 0.00 | 0.00 | 0.00 | 85 | 1013.8 |
| 20260904141020 | 63 | 98 | 0.0 | 2.0 | 0.00 | 0.00 | 0.00 | 86 | 1013.9 |
| 20260904140518 | 63 | 0 | 0.0 | 1.0 | 0.00 | 0.00 | 0.00 | 87 | 1013.7 |
| 20260904140041 | 62 | 0 | 0.0 | 2.0 | 0.00 | 0.00 | 0.00 | 87 | 1013.7 |
| 20260904135520 | 62 | 97 | 0.0 | 2.0 | 0.00 | 0.00 | 0.00 | 87 | 1013.7 |
| 20260904135020 | 61 | 98 | 0.0 | 0.0 | 0.00 | 0.00 | 0.00 | 87 | 1013.7 |
| 20260904134542 | 61 | 0 | 0.0 | 0.0 | 0.00 | 0.00 | 0.00 | 88 | 1013.6 |
| 20260904134020 | 61 | 0 | 0.0 | 0.0 | 0.00 | 0.00 | 0.00 | 87 | 1013.6 |
| 20260904133518 | 61 | 0 | 0.0 | 0.0 | 0.00 | 0.00 | 0.00 | 88 | 1013.5 |
| 20260904133043 | 61 | 0 | 0.0 | 0.0 | 0.00 | 0.00 | 0.00 | 87 | 1013.4 |
| 20260904132524 | 62 | 0 | 0.0 | 0.0 | 0.00 | 0.00 | 0.00 | 87 | 1013.4 |
| 20260904132020 | 62 | 0 | 0.0 | 0.0 | 0.00 | 0.00 | 0.00 | 87 | 1013.3 |
| 20260904131558 | 62 | 0 | 0.0 | 1.0 | 0.00 | 0.00 | 0.00 | 87 | 1013.2 |
| 20260904131020 | 62 | 0 | 0.0 | 1.0 | 0.00 | 0.00 | 0.00 | 88 | 1013.3 |
| 20260904130520 | 62 | 0 | 0.0 | 1.0 | 0.00 | 0.00 | 0.00 | 88 | 1013.3 |
| 20260904130041 | 61 | 0 | 0.0 | 1.0 | 0.00 | 0.00 | 0.00 | 88 | 1013.3 |
| 20260904125519 | 61 | 0 | 0.0 | 0.0 | 0.00 | 0.00 | 0.00 | 88 | 1013.2 |
| 20260904125018 | 61 | 0 | 0.0 | 0.0 | 0.00 | 0.00 | 0.00 | 88 | 1013.2 |
| 20260904124543 | 61 | 0 | 0.0 | 0.0 | 0.00 | 0.00 | 0.00 | 88 | 1013.2 |
| 20260904124018 | 61 | 0 | 0.0 | 0.0 | 0.00 | 0.00 | 0.00 | 88 | 1013.3 |
| 20260904123526 | 61 | 0 | 0.0 | 0.0 | 0.00 | 0.00 | 0.00 | 88 | 1013.1 |
| 20260904123057 | 61 | 0 | 0.0 | 0.0 | 0.00 | 0.00 | 0.00 | 89 | 1013.1 |
| 20260904122520 | 61 | 0 | 0.0 | 0.0 | 0.00 | 0.00 | 0.00 | 89 | 1013.2 |
| 20260904122022 | 61 | 0 | 0.0 | 0.0 | 0.00 | 0.00 | 0.00 | 89 | 1013.1 |
| 20260904121541 | 61 | 0 | 0.0 | 0.0 | 0.00 | 0.00 | 0.00 | 89 | 1013.2 |
| 20260904121021 | 61 | 0 | 0.0 | 0.0 | 0.00 | 0.00 | 0.00 | 89 | 1013.1 |
| 20260904120517 | 62 | 0 | 0.0 | 0.0 | 0.00 | 0.00 | 0.00 | 89 | 1013.1 |
| 20260904120041 | 62 | 0 | 0.0 | 0.0 | 0.00 | 0.00 | 0.00 | 88 | 1013.1 |
| 20260904115521 | 62 | 0 | 0.0 | 0.0 | 0.00 | 0.00 | 0.00 | 89 | 1013.1 |
| 20260904115018 | 62 | 0 | 0.0 | 0.0 | 0.00 | 0.00 | 0.00 | 88 | 1013.1 |
| 20260904114543 | 62 | 0 | 0.0 | 0.0 | 0.00 | 0.00 | 0.00 | 88 | 1013.2 |
| 20260904114018 | 62 | 0 | 0.0 | 0.0 | 0.00 | 0.00 | 0.00 | 88 | 1013.2 |
| 20260904113520 | 62 | 0 | 0.0 | 0.0 | 0.00 | 0.00 | 0.00 | 87 | 1013.3 |
| 20260904113039 | 63 | 0 | 0.0 | 0.0 | 0.00 | 0.00 | 0.00 | 87 | 1013.3 |
| 20260904112518 | 63 | 0 | 0.0 | 0.0 | 0.00 | 0.00 | 0.00 | 87 | 1013.2 |
| 20260904112017 | 63 | 0 | 0.0 | 0.0 | 0.00 | 0.00 | 0.00 | 87 | 1013.2 |
| 20260904111551 | 63 | 0 | 0.0 | 0.0 | 0.00 | 0.00 | 0.00 | 88 | 1013.3 |
| 20260904111017 | 63 | 0 | 0.0 | 0.0 | 0.00 | 0.00 | 0.00 | 88 | 1013.3 |
| 20260904110547 | 63 | 0 | 0.0 | 0.0 | 0.00 | 0.00 | 0.00 | 88 | 1013.3 |
| 20260904110040 | 63 | 0 | 0.0 | 0.0 | 0.00 | 0.00 | 0.00 | 88 | 1013.2 |
| 20260904105519 | 63 | 0 | 0.0 | 0.0 | 0.00 | 0.00 | 0.00 | 88 | 1013.3 |
| 20260904105020 | 63 | 0 | 0.0 | 0.0 | 0.00 | 0.00 | 0.00 | 89 | 1013.3 |
| 20260904104540 | 63 | 0 | 0.0 | 0.0 | 0.00 | 0.00 | 0.00 | 89 | 1013.2 |
| 20260904104021 | 63 | 0 | 0.0 | 0.0 | 0.00 | 0.00 | 0.00 | 89 | 1013.2 |
| 20260904103524 | 63 | 0 | 0.0 | 0.0 | 0.00 | 0.00 | 0.00 | 90 | 1013.1 |
| 20260904103044 | 63 | 0 | 0.0 | 2.0 | 0.00 | 0.00 | 0.00 | 90 | 1013.1 |
| 20260904102518 | 62 | 0 | 0.0 | 2.0 | 0.00 | 0.00 | 0.00 | 90 | 1013.0 |
| 20260904102018 | 62 | 0 | 0.0 | 2.0 | 0.00 | 0.00 | 0.00 | 90 | 1013.0 |
| 20260904101546 | 61 | 0 | 0.0 | 1.0 | 0.00 | 0.00 | 0.00 | 90 | 1013.1 |
| 20260904101019 | 61 | 0 | 0.0 | 1.0 | 0.00 | 0.00 | 0.00 | 89 | 1013.0 |
| 20260904100519 | 62 | 0 | 0.0 | 2.0 | 0.00 | 0.00 | 0.00 | 90 | 1013.1 |
| 20260904100039 | 62 | 0 | 0.0 | 2.0 | 0.00 | 0.00 | 0.00 | 89 | 1013.0 |
| 20260904095516 | 62 | 0 | 0.0 | 2.0 | 0.00 | 0.00 | 0.00 | 89 | 1013.1 |
| 20260904095022 | 63 | 0 | 0.0 | 0.0 | 0.00 | 0.00 | 0.00 | 90 | 1013.1 |
| 20260904094542 | 63 | 0 | 0.0 | 0.0 | 0.00 | 0.00 | 0.00 | 90 | 1013.1 |
| 20260904094021 | 62 | 0 | 0.0 | 0.0 | 0.00 | 0.00 | 0.00 | 90 | 1013.1 |
| 20260904093523 | 62 | 0 | 0.0 | 0.0 | 0.00 | 0.00 | 0.00 | 90 | 1013.1 |
| 20260904093040 | 62 | 0 | 0.0 | 0.0 | 0.00 | 0.00 | 0.00 | 90 | 1013.0 |
| 20260904092520 | 62 | 0 | 0.0 | 0.0 | 0.00 | 0.00 | 0.00 | 89 | 1013.0 |
| 20260904092017 | 62 | 0 | 0.0 | 0.0 | 0.00 | 0.00 | 0.00 | 89 | 1013.0 |
| 20260904091540 | 62 | 0 | 0.0 | 0.0 | 0.00 | 0.00 | 0.00 | 89 | 1013.1 |
| 20260904091020 | 62 | 0 | 0.0 | 0.0 | 0.00 | 0.00 | 0.00 | 89 | 1013.1 |
| 20260904090519 | 62 | 0 | 0.0 | 0.0 | 0.00 | 0.00 | 0.00 | 90 | 1013.1 |
| 20260904090042 | 62 | 0 | 0.0 | 0.0 | 0.00 | 0.00 | 0.00 | 89 | 1013.1 |
| 20260904085527 | 62 | 0 | 0.0 | 0.0 | 0.00 | 0.00 | 0.00 | 90 | 1013.1 |
| 20260904085021 | 62 | 0 | 0.0 | 0.0 | 0.00 | 0.00 | 0.00 | 90 | 1013.1 |
| 20260904084542 | 62 | 0 | 0.0 | 0.0 | 0.00 | 0.00 | 0.00 | 89 | 1013.2 |
| 20260904084017 | 62 | 0 | 0.0 | 0.0 | 0.00 | 0.00 | 0.00 | 89 | 1013.1 |
| 20260904083520 | 62 | 0 | 0.0 | 0.0 | 0.00 | 0.00 | 0.00 | 89 | 1013.2 |
| 20260904083051 | 62 | 0 | 0.0 | 0.0 | 0.00 | 0.00 | 0.00 | 89 | 1013.2 |
| 20260904082521 | 62 | 0 | 0.0 | 0.0 | 0.00 | 0.00 | 0.00 | 89 | 1013.3 |
| 20260904082020 | 62 | 0 | 0.0 | 0.0 | 0.00 | 0.00 | 0.00 | 89 | 1013.3 |
| 20260904081539 | 62 | 0 | 0.0 | 0.0 | 0.00 | 0.00 | 0.00 | 89 | 1013.2 |
| 20260904081023 | 62 | 0 | 0.0 | 0.0 | 0.00 | 0.00 | 0.00 | 89 | 1013.3 |
| 20260904080519 | 62 | 0 | 0.0 | 0.0 | 0.00 | 0.00 | 0.00 | 88 | 1013.3 |
| 20260904080040 | 62 | 0 | 0.0 | 0.0 | 0.00 | 0.00 | 0.00 | 88 | 1013.4 |
| 20260904075520 | 62 | 0 | 0.0 | 0.0 | 0.00 | 0.00 | 0.00 | 88 | 1013.5 |
| 20260904075020 | 63 | 0 | 0.0 | 0.0 | 0.00 | 0.00 | 0.00 | 88 | 1013.3 |
| 20260904074553 | 63 | 0 | 0.0 | 0.0 | 0.00 | 0.00 | 0.00 | 88 | 1013.5 |
| 20260904074017 | 63 | 0 | 0.0 | 0.0 | 0.00 | 0.00 | 0.00 | 88 | 1013.4 |
| 20260904073518 | 63 | 0 | 0.0 | 0.0 | 0.00 | 0.00 | 0.00 | 88 | 1013.4 |
| 20260904073041 | 63 | 0 | 0.0 | 0.0 | 0.00 | 0.00 | 0.00 | 88 | 1013.4 |
| 20260904072518 | 63 | 0 | 0.0 | 0.0 | 0.00 | 0.00 | 0.00 | 88 | 1013.5 |
| 20260904072018 | 63 | 0 | 0.0 | 0.0 | 0.00 | 0.00 | 0.00 | 88 | 1013.4 |
| 20260904071540 | 63 | 0 | 0.0 | 0.0 | 0.00 | 0.00 | 0.00 | 88 | 1013.4 |
| 20260904071021 | 63 | 0 | 0.0 | 1.0 | 0.00 | 0.00 | 0.00 | 88 | 1013.4 |
| 20260904070525 | 63 | 0 | 0.0 | 1.0 | 0.00 | 0.00 | 0.00 | 87 | 1013.5 |
| 20260904070039 | 63 | 0 | 0.0 | 1.0 | 0.00 | 0.00 | 0.00 | 88 | 1013.5 |
| 20260904065521 | 63 | 0 | 0.0 | 0.0 | 0.00 | 0.00 | 0.00 | 88 | 1013.5 |
| 20260904065017 | 63 | 0 | 0.0 | 0.0 | 0.00 | 0.00 | 0.00 | 87 | 1013.5 |
| 20260904064541 | 63 | 0 | 0.0 | 0.0 | 0.00 | 0.00 | 0.00 | 87 | 1013.5 |
| 20260904064017 | 63 | 0 | 0.0 | 0.0 | 0.00 | 0.00 | 0.00 | 87 | 1013.5 |
| 20260904063517 | 63 | 0 | 0.0 | 0.0 | 0.00 | 0.00 | 0.00 | 87 | 1013.5 |
| 20260904063053 | 63 | 0 | 0.0 | 0.0 | 0.00 | 0.00 | 0.00 | 87 | 1013.5 |
| 20260904062525 | 63 | 0 | 0.0 | 0.0 | 0.00 | 0.00 | 0.00 | 87 | 1013.4 |
| 20260904062021 | 63 | 0 | 0.0 | 0.0 | 0.00 | 0.00 | 0.00 | 87 | 1013.5 |
| 20260904061537 | 63 | 0 | 0.0 | 2.0 | 0.00 | 0.00 | 0.00 | 87 | 1013.5 |
| 20260904061018 | 64 | 0 | 0.0 | 2.0 | 0.00 | 0.00 | 0.00 | 87 | 1013.5 |
| 20260904060520 | 64 | 97 | 0.0 | 2.0 | 0.00 | 0.00 | 0.00 | 87 | 1013.4 |
| 20260904060105 | 64 | 0 | 0.0 | 1.0 | 0.00 | 0.00 | 0.00 | 87 | 1013.4 |
| 20260904055520 | 64 | 0 | 0.0 | 0.0 | 0.00 | 0.00 | 0.00 | 87 | 1013.5 |
| 20260904055017 | 64 | 0 | 0.0 | 0.0 | 0.00 | 0.00 | 0.00 | 87 | 1013.4 |
| 20260904054540 | 64 | 0 | 0.0 | 0.0 | 0.00 | 0.00 | 0.00 | 87 | 1013.3 |
| 20260904054020 | 64 | 0 | 0.0 | 0.0 | 0.00 | 0.00 | 0.00 | 87 | 1013.2 |
| 20260904053517 | 64 | 0 | 0.0 | 0.0 | 0.00 | 0.00 | 0.00 | 86 | 1013.1 |
| 20260904053036 | 64 | 0 | 0.0 | 0.0 | 0.00 | 0.00 | 0.00 | 86 | 1013.2 |
| 20260904052519 | 64 | 0 | 0.0 | 0.0 | 0.00 | 0.00 | 0.00 | 86 | 1013.2 |
| 20260904052025 | 64 | 0 | 0.0 | 0.0 | 0.00 | 0.00 | 0.00 | 86 | 1013.3 |
| 20260904051539 | 64 | 0 | 0.0 | 0.0 | 0.00 | 0.00 | 0.00 | 86 | 1013.4 |
| 20260904051021 | 64 | 0 | 0.0 | 0.0 | 0.00 | 0.00 | 0.00 | 86 | 1013.5 |
| 20260904050517 | 64 | 0 | 0.0 | 0.0 | 0.00 | 0.00 | 0.00 | 86 | 1013.4 |
| 20260904050043 | 64 | 0 | 0.0 | 0.0 | 0.00 | 0.00 | 0.00 | 86 | 1013.4 |
| 20260904045525 | 64 | 0 | 0.0 | 0.0 | 0.00 | 0.00 | 0.00 | 86 | 1013.5 |
| 20260904045017 | 64 | 0 | 0.0 | 0.0 | 0.00 | 0.00 | 0.00 | 85 | 1013.4 |
| 20260904044549 | 64 | 0 | 0.0 | 0.0 | 0.00 | 0.00 | 0.00 | 85 | 1013.4 |
| 20260904044019 | 65 | 0 | 0.0 | 0.0 | 0.00 | 0.00 | 0.00 | 85 | 1013.5 |
| 20260904043518 | 65 | 0 | 0.0 | 0.0 | 0.00 | 0.00 | 0.00 | 85 | 1013.5 |
| 20260904043043 | 65 | 0 | 0.0 | 0.0 | 0.00 | 0.00 | 0.00 | 85 | 1013.5 |
| 20260904042521 | 65 | 0 | 0.0 | 0.0 | 0.00 | 0.00 | 0.00 | 85 | 1013.4 |
| 20260904042021 | 65 | 0 | 0.0 | 0.0 | 0.00 | 0.00 | 0.00 | 85 | 1013.5 |
| 20260904041539 | 65 | 0 | 0.0 | 0.0 | 0.00 | 0.00 | 0.00 | 84 | 1013.5 |
| 20260904041025 | 65 | 0 | 0.0 | 0.0 | 0.00 | 0.00 | 0.00 | 84 | 1013.4 |
| 20260904040517 | 65 | 0 | 0.0 | 0.0 | 0.00 | 0.00 | 0.00 | 84 | 1013.6 |
| 20260904040041 | 65 | 0 | 0.0 | 0.0 | 0.00 | 0.00 | 0.00 | 83 | 1013.4 |
| 20260904035520 | 65 | 0 | 0.0 | 0.0 | 0.00 | 0.00 | 0.00 | 83 | 1013.3 |
| 20260904035016 | 65 | 0 | 0.0 | 0.0 | 0.00 | 0.00 | 0.00 | 83 | 1013.3 |
| 20260904034544 | 66 | 0 | 0.0 | 0.0 | 0.00 | 0.00 | 0.00 | 83 | 1013.3 |
| 20260904034018 | 66 | 0 | 0.0 | 2.0 | 0.00 | 0.00 | 0.00 | 82 | 1013.2 |
| 20260904033521 | 66 | 0 | 0.0 | 2.0 | 0.00 | 0.00 | 0.00 | 82 | 1013.3 |
| 20260904033043 | 66 | 0 | 0.0 | 2.0 | 0.00 | 0.00 | 0.00 | 82 | 1013.1 |
| 20260904032517 | 67 | 0 | 0.0 | 1.0 | 0.00 | 0.00 | 0.00 | 82 | 1013.1 |
| 20260904032017 | 67 | 0 | 0.0 | 1.0 | 0.00 | 0.00 | 0.00 | 82 | 1013.0 |
| 20260904031540 | 67 | 0 | 0.0 | 1.0 | 0.00 | 0.00 | 0.00 | 81 | 1013.0 |
| 20260904031018 | 67 | 0 | 0.0 | 1.0 | 0.00 | 0.00 | 0.00 | 81 | 1013.0 |
| 20260904030521 | 67 | 0 | 0.0 | 1.0 | 0.00 | 0.00 | 0.00 | 81 | 1013.0 |
| 20260904030039 | 67 | 0 | 0.0 | 1.0 | 0.00 | 0.00 | 0.00 | 81 | 1013.0 |
| 20260904025517 | 67 | 0 | 0.0 | 2.0 | 0.00 | 0.00 | 0.00 | 81 | 1013.0 |
| 20260904025022 | 68 | 0 | 0.0 | 2.0 | 0.00 | 0.00 | 0.00 | 81 | 1013.0 |
| 20260904024540 | 68 | 0 | 0.0 | 2.0 | 0.00 | 0.00 | 0.00 | 81 | 1012.9 |
| 20260904024017 | 68 | 0 | 0.0 | 2.0 | 0.00 | 0.00 | 0.00 | 81 | 1012.8 |
| 20260904023517 | 68 | 0 | 0.0 | 1.0 | 0.00 | 0.00 | 0.00 | 80 | 1012.9 |
| 20260904023041 | 68 | 0 | 0.0 | 1.0 | 0.00 | 0.00 | 0.00 | 80 | 1013.0 |
| 20260904022519 | 68 | 0 | 0.0 | 2.0 | 0.00 | 0.00 | 0.00 | 80 | 1012.9 |
| 20260904022020 | 68 | 0 | 0.0 | 3.0 | 0.00 | 0.00 | 0.00 | 80 | 1012.9 |
| 20260904021542 | 68 | 0 | 0.0 | 3.0 | 0.00 | 0.00 | 0.00 | 80 | 1012.9 |
| 20260904021020 | 68 | 360 | 1.0 | 3.0 | 0.00 | 0.00 | 0.00 | 80 | 1013.0 |
| 20260904020520 | 68 | 0 | 0.0 | 2.0 | 0.00 | 0.00 | 0.00 | 80 | 1013.0 |
| 20260904020041 | 68 | 0 | 0.0 | 2.0 | 0.00 | 0.00 | 0.00 | 80 | 1013.0 |
| 20260904015520 | 69 | 0 | 0.0 | 2.0 | 0.00 | 0.00 | 0.00 | 80 | 1013.1 |
| 20260904015022 | 69 | 0 | 0.0 | 2.0 | 0.00 | 0.00 | 0.00 | 80 | 1013.0 |
| 20260904014542 | 69 | 34 | 0.0 | 5.0 | 0.00 | 0.00 | 0.00 | 80 | 1012.9 |
| 20260904014018 | 69 | 0 | 0.0 | 5.0 | 0.00 | 0.00 | 0.00 | 80 | 1013.0 |
| 20260904013517 | 69 | 321 | 2.0 | 5.0 | 0.00 | 0.00 | 0.00 | 79 | 1013.1 |
| 20260904013035 | 69 | 5 | 1.0 | 3.0 | 0.00 | 0.00 | 0.00 | 80 | 1013.1 |
| 20260904012526 | 69 | 5 | 0.0 | 5.0 | 0.00 | 0.00 | 0.00 | 80 | 1013.2 |
| 20260904012023 | 69 | 0 | 0.0 | 5.0 | 0.00 | 0.00 | 0.00 | 79 | 1013.1 |
| 20260904011543 | 69 | 0 | 1.0 | 5.0 | 0.00 | 0.00 | 0.00 | 79 | 1013.1 |
| 20260904011017 | 70 | 341 | 1.0 | 4.0 | 0.00 | 0.00 | 0.00 | 79 | 1013.2 |
| 20260904010525 | 70 | 51 | 1.0 | 4.0 | 0.00 | 0.00 | 0.00 | 79 | 1013.2 |
| 20260904010050 | 70 | 28 | 0.0 | 4.0 | 0.00 | 0.00 | 0.00 | 79 | 1013.2 |
| 20260904005520 | 70 | 26 | 0.0 | 4.0 | 0.00 | 0.00 | 0.00 | 79 | 1013.1 |
| 20260904005020 | 70 | 5 | 2.0 | 4.0 | 0.00 | 0.00 | 0.00 | 78 | 1013.1 |
| 20260904004556 | 70 | 360 | 1.0 | 4.0 | 0.00 | 0.00 | 0.00 | 78 | 1013.1 |
| 20260904004019 | 70 | 0 | 0.0 | 4.0 | 0.00 | 0.00 | 0.00 | 78 | 1013.1 |
| 20260904003521 | 71 | 352 | 0.0 | 5.0 | 0.00 | 0.00 | 0.00 | 77 | 1013.1 |
| 20260904003035 | 71 | 13 | 1.0 | 5.0 | 0.00 | 0.00 | 0.00 | 77 | 1013.0 |
| 20260904002518 | 71 | 27 | 0.0 | 5.0 | 0.00 | 0.00 | 0.00 | 77 | 1013.0 |
| 20260904002018 | 71 | 0 | 1.0 | 5.0 | 0.00 | 0.00 | 0.00 | 76 | 1013.1 |
| 20260904001537 | 71 | 22 | 1.0 | 5.0 | 0.00 | 0.00 | 0.00 | 76 | 1013.0 |
| 20260904001019 | 72 | 5 | 2.0 | 6.0 | 0.00 | 0.00 | 0.00 | 75 | 1013.1 |
| 20260904000518 | 72 | 332 | 1.0 | 6.0 | 0.00 | 0.00 | 0.00 | 75 | 1013.2 |
| 20260904000053 | 72 | 13 | 1.0 | 5.0 | 0.00 | 0.00 | 0.00 | 74 | 1013.2 |
| 20260903235519 | 72 | 236 | 1.0 | 6.0 | 0.00 | 0.00 | 0.00 | 74 | 1013.2 |
| 20260903235019 | 72 | 24 | 2.0 | 6.0 | 0.00 | 0.00 | 0.00 | 74 | 1013.2 |
| 20260903234543 | 73 | 313 | 2.0 | 6.0 | 0.00 | 0.00 | 0.00 | 73 | 1013.2 |
| 20260903234020 | 73 | 69 | 1.0 | 4.0 | 0.00 | 0.00 | 0.00 | 72 | 1013.2 |
| 20260903233520 | 73 | 69 | 1.0 | 5.0 | 0.00 | 0.00 | 0.00 | 72 | 1013.2 |
| 20260903233041 | 73 | 86 | 2.0 | 5.0 | 0.00 | 0.00 | 0.00 | 71 | 1013.2 |
| 20260903232517 | 75 | 293 | 1.0 | 4.0 | 0.00 | 0.00 | 0.00 | 71 | 1013.3 |
| 20260903232018 | 75 | 5 | 1.0 | 6.0 | 0.00 | 0.00 | 0.00 | 69 | 1013.3 |
| 20260903231540 | 75 | 51 | 2.0 | 6.0 | 0.00 | 0.00 | 0.00 | 69 | 1013.4 |
| 20260903231020 | 75 | 320 | 2.0 | 6.0 | 0.00 | 0.00 | 0.00 | 71 | 1013.4 |
| 20260903230519 | 74 | 327 | 2.0 | 6.0 | 0.00 | 0.00 | 0.00 | 71 | 1013.4 |
| 20260903230041 | 75 | 94 | 1.0 | 6.0 | 0.00 | 0.00 | 0.00 | 71 | 1013.4 |
| 20260903225520 | 75 | 348 | 2.0 | 6.0 | 0.00 | 0.00 | 0.00 | 71 | 1013.4 |
| 20260903225018 | 75 | 101 | 1.0 | 6.0 | 0.00 | 0.00 | 0.00 | 71 | 1013.5 |
| 20260903224539 | 75 | 50 | 2.0 | 7.0 | 0.00 | 0.00 | 0.00 | 71 | 1013.4 |
| 20260903224024 | 76 | 126 | 1.0 | 10.0 | 0.00 | 0.00 | 0.00 | 71 | 1013.4 |
| 20260903223518 | 75 | 0 | 1.0 | 10.0 | 0.00 | 0.00 | 0.00 | 72 | 1013.5 |
| 20260903223043 | 74 | 0 | 3.0 | 6.0 | 0.00 | 0.00 | 0.00 | 72 | 1013.5 |
| 20260903222516 | 76 | 10 | 1.0 | 6.0 | 0.00 | 0.00 | 0.00 | 72 | 1013.5 |
| 20260903222024 | 75 | 170 | 2.0 | 6.0 | 0.00 | 0.00 | 0.00 | 72 | 1013.6 |
| 20260903221537 | 76 | 360 | 1.0 | 6.0 | 0.00 | 0.00 | 0.00 | 72 | 1013.5 |
| 20260903221020 | 75 | 49 | 1.0 | 9.0 | 0.00 | 0.00 | 0.00 | 71 | 1013.6 |
| 20260903220519 | 76 | 117 | 1.0 | 9.0 | 0.00 | 0.00 | 0.00 | 70 | 1013.7 |
| 20260903220049 | 76 | 336 | 2.0 | 5.0 | 0.00 | 0.00 | 0.00 | 71 | 1013.7 |
| 20260903215520 | 77 | 89 | 1.0 | 4.0 | 0.00 | 0.00 | 0.00 | 70 | 1013.8 |
| 20260903215019 | 78 | 90 | 1.0 | 7.0 | 0.00 | 0.00 | 0.00 | 69 | 1013.8 |
| 20260903214542 | 75 | 54 | 1.0 | 7.0 | 0.00 | 0.00 | 0.00 | 72 | 1013.9 |
| 20260903214018 | 75 | 66 | 2.0 | 7.0 | 0.00 | 0.00 | 0.00 | 72 | 1013.9 |
| 20260903213518 | 75 | 33 | 2.0 | 7.0 | 0.00 | 0.00 | 0.00 | 72 | 1013.8 |
| 20260903213040 | 76 | 91 | 1.0 | 7.0 | 0.00 | 0.00 | 0.00 | 71 | 1013.8 |
| 20260903212520 | 76 | 108 | 2.0 | 7.0 | 0.00 | 0.00 | 0.00 | 72 | 1013.9 |
| 20260903212020 | 76 | 63 | 1.0 | 8.0 | 0.00 | 0.00 | 0.00 | 70 | 1013.9 |
| 20260903211609 | 76 | 44 | 1.0 | 8.0 | 0.00 | 0.00 | 0.00 | 72 | 1014.0 |
| 20260903211025 | 76 | 190 | 3.0 | 8.0 | 0.00 | 0.00 | 0.00 | 72 | 1013.9 |
| 20260903210518 | 76 | 94 | 2.0 | 5.0 | 0.00 | 0.00 | 0.00 | 72 | 1014.1 |
| 20260903210040 | 76 | 80 | 2.0 | 5.0 | 0.00 | 0.00 | 0.00 | 72 | 1014.0 |
| 20260903205519 | 76 | 34 | 2.0 | 7.0 | 0.00 | 0.00 | 0.00 | 70 | 1013.9 |
| 20260903205018 | 76 | 57 | 2.0 | 10.0 | 0.00 | 0.00 | 0.00 | 72 | 1014.1 |
| 20260903204539 | 76 | 0 | 2.0 | 10.0 | 0.00 | 0.00 | 0.00 | 71 | 1014.1 |
| 20260903204019 | 77 | 43 | 1.0 | 9.0 | 0.00 | 0.00 | 0.00 | 71 | 1014.1 |
| 20260903203521 | 75 | 56 | 3.0 | 9.0 | 0.00 | 0.00 | 0.00 | 71 | 1014.2 |
| 20260903203037 | 76 | 67 | 2.0 | 7.0 | 0.00 | 0.00 | 0.00 | 72 | 1014.1 |
| 20260903202518 | 75 | 94 | 1.0 | 7.0 | 0.00 | 0.00 | 0.00 | 71 | 1014.2 |
| 20260903202020 | 75 | 90 | 3.0 | 7.0 | 0.00 | 0.00 | 0.00 | 71 | 1014.2 |
| 20260903201540 | 76 | 94 | 1.0 | 7.0 | 0.00 | 0.00 | 0.00 | 70 | 1014.2 |
| 20260903201020 | 76 | 126 | 1.0 | 7.0 | 0.00 | 0.00 | 0.00 | 71 | 1014.1 |
| 20260903200518 | 76 | 61 | 2.0 | 7.0 | 0.00 | 0.00 | 0.00 | 71 | 1014.1 |
| 20260903200038 | 76 | 119 | 2.0 | 6.0 | 0.00 | 0.00 | 0.00 | 72 | 1014.1 |
| 20260903195518 | 76 | 94 | 2.0 | 5.0 | 0.00 | 0.00 | 0.00 | 70 | 1014.3 |
| 20260903195017 | 76 | 142 | 1.0 | 6.0 | 0.00 | 0.00 | 0.00 | 72 | 1014.4 |
| 20260903194536 | 76 | 65 | 2.0 | 8.0 | 0.00 | 0.00 | 0.00 | 73 | 1014.4 |
| 20260903194021 | 76 | 5 | 2.0 | 8.0 | 0.00 | 0.00 | 0.00 | 74 | 1014.4 |
| 20260903193521 | 76 | 119 | 2.0 | 6.0 | 0.00 | 0.00 | 0.00 | 73 | 1014.5 |
| 20260903193038 | 76 | 24 | 1.0 | 6.0 | 0.00 | 0.00 | 0.00 | 73 | 1014.5 |
| 20260903192517 | 76 | 55 | 2.0 | 6.0 | 0.00 | 0.00 | 0.00 | 74 | 1014.5 |
| 20260903192017 | 75 | 84 | 2.0 | 6.0 | 0.00 | 0.00 | 0.00 | 74 | 1014.6 |
| 20260903191541 | 75 | 113 | 2.0 | 6.0 | 0.00 | 0.00 | 0.00 | 74 | 1014.6 |
| 20260903191020 | 75 | 136 | 2.0 | 6.0 | 0.00 | 0.00 | 0.00 | 75 | 1014.6 |
| 20260903190520 | 75 | 124 | 3.0 | 6.0 | 0.00 | 0.00 | 0.00 | 74 | 1014.6 |
| 20260903190038 | 75 | 118 | 2.0 | 6.0 | 0.00 | 0.00 | 0.00 | 74 | 1014.7 |
| 20260903185516 | 75 | 110 | 2.0 | 6.0 | 0.00 | 0.00 | 0.00 | 73 | 1014.8 |
| 20260903185024 | 75 | 69 | 2.0 | 6.0 | 0.00 | 0.00 | 0.00 | 73 | 1014.9 |
| 20260903184540 | 75 | 77 | 3.0 | 6.0 | 0.00 | 0.00 | 0.00 | 73 | 1014.9 |
| 20260903184023 | 75 | 105 | 2.0 | 6.0 | 0.00 | 0.00 | 0.00 | 72 | 1015.1 |
| 20260903183518 | 75 | 94 | 2.0 | 7.0 | 0.00 | 0.00 | 0.00 | 71 | 1015.0 |
| 20260903183039 | 75 | 180 | 2.0 | 8.0 | 0.00 | 0.00 | 0.00 | 72 | 1015.2 |
| 20260903182520 | 75 | 99 | 1.0 | 8.0 | 0.00 | 0.00 | 0.00 | 73 | 1015.3 |
| 20260903182021 | 75 | 115 | 3.0 | 8.0 | 0.00 | 0.00 | 0.00 | 72 | 1015.2 |
| 20260903181539 | 74 | 115 | 2.0 | 7.0 | 0.00 | 0.00 | 0.00 | 72 | 1015.2 |
| 20260903181023 | 75 | 0 | 1.0 | 7.0 | 0.00 | 0.00 | 0.00 | 72 | 1015.2 |
| 20260903180519 | 75 | 95 | 1.0 | 7.0 | 0.00 | 0.00 | 0.00 | 73 | 1015.3 |
| 20260903180042 | 75 | 67 | 2.0 | 7.0 | 0.00 | 0.00 | 0.00 | 72 | 1015.3 |
| 20260903175519 | 74 | 115 | 3.0 | 7.0 | 0.00 | 0.00 | 0.00 | 73 | 1015.3 |
| 20260903175016 | 75 | 136 | 1.0 | 6.0 | 0.00 | 0.00 | 0.00 | 72 | 1015.4 |
| 20260903174556 | 74 | 119 | 2.0 | 5.0 | 0.00 | 0.00 | 0.00 | 74 | 1015.3 |
| 20260903174021 | 74 | 107 | 2.0 | 6.0 | 0.00 | 0.00 | 0.00 | 73 | 1015.4 |
| 20260903173517 | 74 | 63 | 2.0 | 7.0 | 0.00 | 0.00 | 0.00 | 73 | 1015.4 |
| 20260903173039 | 74 | 192 | 2.0 | 7.0 | 0.00 | 0.00 | 0.00 | 72 | 1015.4 |
| 20260903172518 | 74 | 103 | 1.0 | 6.0 | 0.00 | 0.00 | 0.00 | 74 | 1015.2 |
| 20260903172021 | 74 | 73 | 1.0 | 6.0 | 0.00 | 0.00 | 0.00 | 72 | 1015.3 |
| 20260903171541 | 73 | 77 | 1.0 | 6.0 | 0.00 | 0.00 | 0.00 | 73 | 1015.2 |
| 20260903171018 | 74 | 172 | 1.0 | 4.0 | 0.00 | 0.00 | 0.00 | 73 | 1015.3 |
| 20260903170519 | 73 | 96 | 1.0 | 5.0 | 0.00 | 0.00 | 0.00 | 73 | 1015.3 |
| 20260903170103 | 72 | 0 | 2.0 | 5.0 | 0.00 | 0.00 | 0.00 | 75 | 1015.2 |
| 20260903165522 | 72 | 21 | 2.0 | 5.0 | 0.00 | 0.00 | 0.00 | 73 | 1015.3 |
| 20260903165020 | 73 | 142 | 1.0 | 4.0 | 0.00 | 0.00 | 0.00 | 74 | 1015.3 |
| 20260903164547 | 72 | 69 | 1.0 | 4.0 | 0.00 | 0.00 | 0.00 | 75 | 1015.2 |
| 20260903164020 | 73 | 24 | 1.0 | 4.0 | 0.00 | 0.00 | 0.00 | 74 | 1015.2 |
| 20260903163523 | 72 | 41 | 1.0 | 4.0 | 0.00 | 0.00 | 0.00 | 75 | 1015.2 |
| 20260903163038 | 72 | 70 | 1.0 | 4.0 | 0.00 | 0.00 | 0.00 | 75 | 1015.3 |
| 20260903162518 | 71 | 0 | 0.0 | 5.0 | 0.00 | 0.00 | 0.00 | 76 | 1015.2 |
| 20260903162017 | 72 | 146 | 0.0 | 5.0 | 0.00 | 0.00 | 0.00 | 77 | 1015.3 |
| 20260903161539 | 71 | 16 | 1.0 | 3.0 | 0.00 | 0.00 | 0.00 | 76 | 1015.3 |
| 20260903161024 | 71 | 0 | 0.0 | 3.0 | 0.00 | 0.00 | 0.00 | 78 | 1015.3 |
| 20260903160521 | 71 | 0 | 0.0 | 3.0 | 0.00 | 0.00 | 0.00 | 79 | 1015.3 |
| 20260903160041 | 70 | 352 | 1.0 | 3.0 | 0.00 | 0.00 | 0.00 | 79 | 1015.5 |
| 20260903155520 | 69 | 135 | 0.0 | 3.0 | 0.00 | 0.00 | 0.00 | 81 | 1015.5 |
| 20260903155017 | 69 | 325 | 1.0 | 3.0 | 0.00 | 0.00 | 0.00 | 82 | 1015.5 |
| 20260903154541 | 68 | 32 | 1.0 | 3.0 | 0.00 | 0.00 | 0.00 | 82 | 1015.6 |
| 20260903154020 | 67 | 19 | 1.0 | 3.0 | 0.00 | 0.00 | 0.00 | 84 | 1015.6 |
| 20260903153520 | 66 | 10 | 1.0 | 3.0 | 0.00 | 0.00 | 0.00 | 85 | 1015.6 |
| 20260903153045 | 66 | 360 | 1.0 | 3.0 | 0.00 | 0.00 | 0.00 | 86 | 1015.6 |
| 20260903152522 | 65 | 5 | 1.0 | 3.0 | 0.00 | 0.00 | 0.00 | 87 | 1015.5 |
| 20260903152022 | 64 | 360 | 1.0 | 3.0 | 0.00 | 0.00 | 0.00 | 88 | 1015.5 |
| 20260903151547 | 64 | 9 | 1.0 | 3.0 | 0.00 | 0.00 | 0.00 | 88 | 1015.7 |
| 20260903151017 | 63 | 23 | 1.0 | 3.0 | 0.00 | 0.00 | 0.00 | 89 | 1015.7 |
| 20260903150519 | 63 | 0 | 0.0 | 2.0 | 0.00 | 0.00 | 0.00 | 89 | 1015.6 |
| 20260903150037 | 63 | 17 | 0.0 | 2.0 | 0.00 | 0.00 | 0.00 | 90 | 1015.7 |